Wind_Speed
11 13 16 18 20 22 23 22 21 21 19 16 12 11 10 10 10 11 12 13 14 15 15 14 14 14 14 14 14 14 13 13 13 13 13 13 13 12 12 13 12 12 12 12 11 11 12 13 14 13 12 12 13 12 13 13 14 16 15 15 18 18 18 22 25 25 25 23 19 16 17 22 28 30 32 35 34 32 31 30 30 30 29 27 27
12 15 17 19 21 21 20 19 18 17 14 10 8 8 8 9 10 11 12 14 15 15 14 13 13 13 12 12 13 13 13 12 12 12 13 13 13 11 11 11 11 11 10 10 11 11 12 13 14 13 12 12 12 12 12 13 13 15 16 16 18 19 16 18 23 28 30 26 19 15 15 18 23 27 29 32 34 33 32 31 31 31 30 30 29
13 15 15 16 18 17 15 14 14 10 6 5 5 6 7 9 10 12 12 13 13 13 12 12 11 11 11 11 11 11 11 12 11 11 11 12 12 11 10 10 10 11 10 10 11 10 10 11 11 11 11 11 11 11 11 11 12 13 15 16 17 17 15 16 22 28 29 25 20 17 15 15 18 23 26 29 32 33 32 32 32 32 31 31 29
10 9 9 11 11 11 11 11 8 5 3 4 5 6 8 9 10 10 11 11 11 11 11 10 10 9 9 10 10 10 11 11 10 9 9 10 11 11 10 10 9 10 10 10 11 10 9 10 9 9 9 10 10 9 9 10 11 12 13 14 14 15 14 15 19 22 23 21 19 18 16 14 15 19 24 28 32 32 32 33 34 33 32 31 29
7 7 6 7 8 9 8 7 3 1 2 3 5 6 7 7 8 9 9 10 10 10 10 8 8 8 9 11 11 11 11 10 9 8 9 9 10 11 11 10 10 10 10 10 10 10 9 8 8 8 8 8 7 8 8 9 10 10 11 11 11 12 13 14 17 20 21 20 18 17 17 16 15 17 22 27 31 30 30 33 33 32 32 31 29
6 6 5 6 7 7 5 1 2 3 2 3 4 5 6 7 8 9 9 10 10 10 9 8 8 10 12 12 11 11 11 10 9 9 9 9 10 10 10 10 10 10 11 11 10 10 9 8 7 7 7 7 7 7 7 7 8 9 10 11 11 11 12 12 14 19 21 21 19 18 18 17 17 18 20 24 28 29 30 32 32 31 32 32 30
5 4 4 6 5 3 1 4 4 3 3 3 4 5 7 8 9 9 10 10 11 11 11 11 13 13 13 12 11 10 9 9 10 10 10 10 10 10 10 10 10 10 10 10 11 11 10 9 9 8 7 7 6 6 7 7 7 8 8 9 10 11 11 11 12 16 19 21 22 21 18 17 18 18 18 20 24 28 30 30 30 31 32 33 32
4 4 5 5 2 2 5 6 5 4 4 5 6 7 8 9 10 10 11 12 12 13 14 15 15 13 13 14 13 11 10 10 12 13 12 12 11 11 10 9 9 9 9 9 9 10 10 10 9 9 8 8 7 7 7 7 7 7 8 8 10 10 10 11 12 14 16 18 21 21 19 18 18 18 18 19 22 26 28 28 31 33 32 32 32
5 5 4 2 3 6 7 7 6 6 6 6 7 8 8 10 11 11 13 15 15 16 16 16 14 13 14 14 14 14 14 15 17 17 16 15 14 12 12 10 9 9 9 8 8 9 9 9 10 10 10 9 9 9 8 7 7 7 7 8 8 8 9 11 12 12 14 16 18 19 18 19 18 18 20 21 22 24 26 26 30 34 32 30 30
5 5 2 3 7 9 9 8 7 7 7 7 7 8 9 11 12 13 15 16 17 17 15 14 14 14 15 16 16 17 18 18 19 19 18 18 16 15 13 12 11 10 9 8 8 9 9 9 10 10 10 9 9 9 9 8 7 7 7 7 6 6 8 11 13 12 13 16 18 19 18 18 18 18 20 20 21 23 25 27 30 32 32 30 28
4 3 4 7 10 11 10 9 9 8 7 7 8 9 10 12 14 15 16 16 15 14 13 13 14 16 16 16 17 18 19 19 19 18 17 17 16 15 14 12 12 12 11 11 10 10 10 10 10 10 10 10 10 9 9 8 8 8 8 7 6 7 8 11 14 16 15 16 18 19 18 18 19 19 20 21 22 24 25 27 31 33 32 31 28
4 5 7 9 12 12 11 10 9 8 8 8 9 10 11 12 14 14 15 14 13 13 14 15 16 17 17 17 19 21 22 21 20 19 17 16 15 15 15 14 15 15 16 16 15 13 13 13 13 13 13 13 13 13 12 10 9 9 8 7 7 7 8 10 13 15 16 16 16 15 16 17 18 19 20 21 22 24 24 26 31 33 32 31 28
6 6 7 10 13 14 12 10 10 9 9 9 10 10 10 11 13 14 15 15 15 16 17 17 17 17 18 19 22 23 24 24 23 21 19 18 16 16 16 17 19 20 21 21 20 19 18 18 18 18 19 18 18 19 18 15 12 10 9 8 7 7 7 9 11 12 13 14 15 15 15 17 18 19 19 20 21 23 24 27 31 32 32 29 25
7 7 11 13 14 14 12 11 10 9 10 10 10 10 10 10 12 14 16 16 16 16 16 16 17 18 20 22 23 25 26 25 24 22 20 19 18 18 19 21 23 25 27 27 27 26 25 25 26 26 25 24 24 23 21 18 15 13 11 9 8 7 6 8 8 8 7 8 11 14 16 17 19 19 19 20 22 23 24 27 30 32 32 28 23
7 9 13 13 14 14 13 11 11 10 10 11 11 11 11 11 12 13 15 15 15 15 16 17 18 20 21 22 23 25 26 24 23 22 20 19 18 19 21 24 26 28 29 30 30 31 31 32 32 31 31 30 28 26 22 19 17 16 18 18 17 15 15 16 15 13 10 7 6 8 11 13 15 17 16 17 19 21 23 26 30 34 32 26 21
9 10 12 14 15 15 13 12 11 11 11 11 12 12 12 12 12 12 13 14 15 15 16 18 19 20 20 21 22 24 24 22 21 20 19 18 18 19 21 24 26 29 30 31 32 32 32 33 32 31 31 31 30 29 27 25 23 24 25 27 26 25 25 24 23 20 17 14 11 8 6 5 6 8 10 10 12 16 19 22 26 30 28 22 19
9 9 11 14 16 16 14 12 12 11 11 12 12 12 12 11 11 11 11 12 13 14 15 16 17 18 19 19 20 22 22 21 20 19 18 18 18 19 21 24 27 29 31 31 31 31 31 31 30 30 30 30 29 29 30 30 30 30 31 32 31 31 30 27 25 24 22 20 18 15 13 12 11 8 6 4 5 8 11 15 20 22 18 16 16
9 9 11 13 15 16 14 13 12 11 11 11 12 13 12 12 11 11 10 11 13 14 14 15 16 17 18 18 19 21 21 21 20 20 19 18 18 19 20 22 26 28 29 29 29 29 29 28 28 28 28 27 26 26 27 28 29 30 31 31 31 31 28 25 25 25 24 23 22 20 20 20 19 18 16 9 2 1 1 7 15 15 12 12 16
11 10 11 12 14 16 15 13 12 11 11 11 12 13 13 12 11 11 11 13 14 14 14 14 15 16 17 18 18 19 20 20 19 18 18 17 18 18 19 21 23 25 26 26 27 27 26 27 27 26 25 24 23 24 24 25 26 28 28 28 29 29 26 23 23 24 25 26 26 25 25 24 23 22 21 16 8 6 8 10 11 10 6 8 13
13 11 10 12 15 17 15 13 12 11 11 12 12 13 13 12 11 11 13 14 14 13 13 13 14 15 15 16 16 17 18 17 17 16 16 16 16 17 18 19 21 22 23 24 25 24 24 25 25 24 22 21 21 22 22 24 25 26 27 27 27 26 23 22 22 23 24 26 27 28 28 27 26 24 23 22 18 15 15 15 13 9 6 4 3
14 11 10 12 16 17 16 13 13 13 13 13 13 14 14 13 13 13 13 13 12 12 12 12 13 14 14 15 15 16 17 16 16 15 15 15 15 16 16 18 20 20 20 21 23 23 23 23 23 22 20 19 19 20 21 22 24 26 27 27 25 22 20 20 20 20 22 24 25 26 27 27 27 27 26 25 24 20 15 12 10 8 6 6 6
13 10 11 14 16 17 16 14 14 15 15 14 14 15 15 14 13 13 12 11 11 11 12 12 13 15 16 16 17 18 19 18 17 17 17 17 17 17 17 18 19 18 18 21 23 23 22 22 22 21 19 19 20 21 21 22 23 25 25 24 22 21 20 21 21 21 23 24 24 25 26 26 26 26 26 25 24 22 19 16 14 11 8 6 4
13 10 12 16 17 17 16 15 16 16 15 14 14 14 14 13 12 11 10 9 10 11 12 13 14 16 18 20 21 22 22 22 22 22 22 22 22 21 21 21 20 20 21 23 23 23 22 22 22 21 21 22 23 24 24 25 25 24 24 23 23 24 24 25 27 28 28 29 29 30 30 29 28 27 25 24 22 21 19 18 17 15 13 11 9
12 11 14 17 17 17 16 16 16 16 15 13 12 12 12 11 10 10 9 9 10 12 13 15 16 18 21 23 24 24 25 25 25 24 25 24 25 24 24 24 23 23 25 26 24 23 23 22 22 22 23 24 26 27 28 28 27 26 25 25 26 27 29 30 31 32 33 33 34 34 34 33 32 30 28 25 23 20 18 16 15 15 14 13 11
12 14 17 18 17 16 17 16 15 15 14 12 11 11 11 10 10 10 10 10 11 13 15 16 18 20 22 23 24 24 24 24 24 24 24 24 24 24 23 23 23 24 25 26 25 24 23 22 22 23 24 24 25 27 28 28 27 27 27 27 28 30 30 31 32 33 33 34 34 33 33 31 31 30 29 28 27 25 22 20 18 15 12 10 9
15 18 19 18 17 16 17 16 15 14 13 11 11 11 10 10 11 11 11 12 13 15 17 18 19 20 21 22 23 22 22 23 23 22 22 22 22 21 21 21 21 21 23 23 22 21 21 21 21 22 23 24 25 26 27 27 26 27 27 28 29 30 31 31 32 33 33 32 31 30 29 28 27 27 27 28 29 28 26 25 25 23 19 16 16
19 19 18 17 17 16 16 16 15 14 13 12 12 12 12 12 13 14 15 15 16 17 18 18 18 19 20 21 21 21 21 21 21 21 21 21 20 20 19 19 19 19 20 20 19 20 20 20 21 22 23 23 24 25 25 25 26 27 28 29 29 30 30 30 31 31 31 30 29 28 27 25 25 25 26 28 28 27 26 26 27 27 26 26 27
19 18 17 17 17 16 15 15 14 13 14 14 14 15 15 15 16 17 17 16 16 16 17 17 18 18 19 19 19 20 20 20 20 20 19 19 18 18 17 17 17 17 18 18 18 19 19 20 21 22 22 23 24 24 24 25 26 27 27 28 29 29 29 29 30 30 30 29 28 28 27 26 25 25 26 27 27 26 25 24 25 25 25 27 29
17 17 17 17 17 15 14 14 13 14 16 17 17 18 17 16 16 17 17 15 15 15 15 16 17 17 18 18 19 19 20 20 19 18 17 16 16 16 16 16 16 16 16 16 17 18 20 21 22 23 23 24 24 24 24 24 25 25 26 26 27 28 28 29 30 30 30 29 29 28 28 27 26 26 25 26 27 26 25 24 23 23 24 27 29
16 17 18 17 16 15 14 15 15 16 17 18 19 19 18 16 16 16 16 16 15 15 16 17 17 17 18 19 19 19 20 20 18 16 14 14 15 15 16 15 15 15 16 15 16 18 21 23 24 25 25 25 24 24 24 24 25 25 26 26 27 28 28 29 29 29 29 29 29 28 28 28 28 27 26 26 26 26 25 24 23 22 22 23 24
17 18 17 16 15 15 15 16 17 17 17 17 18 19 19 18 17 17 17 16 16 16 17 17 17 17 18 19 19 20 19 18 16 14 14 14 15 16 16 15 15 15 15 14 16 20 24 25 26 26 26 26 25 25 24 24 24 25 25 25 26 27 28 27 27 27 27 28 28 28 28 29 28 27 27 26 26 25 24 24 24 23 21 19 19
17 18 17 16 16 15 16 16 16 16 16 16 16 17 18 18 19 18 17 16 16 16 17 17 17 17 17 18 18 19 18 17 15 15 14 14 15 15 15 15 16 16 15 15 18 23 25 26 27 27 26 26 26 25 24 24 24 24 24 24 25 25 25 25 24 24 25 26 27 27 27 27 27 26 25 25 24 24 24 22 21 21 20 19 19
17 17 17 17 17 16 16 16 16 15 15 14 14 15 16 17 18 18 17 16 16 16 16 17 17 17 17 17 17 18 17 16 16 16 15 15 15 15 15 16 17 16 16 18 22 24 25 25 26 26 26 26 25 25 24 24 24 23 24 24 24 23 23 22 22 22 23 24 25 25 25 25 25 24 24 24 23 23 23 21 19 17 17 17 18
16 17 17 17 17 16 15 15 14 14 13 13 13 14 15 16 17 18 18 17 16 16 17 17 17 17 17 17 17 17 16 16 16 16 16 15 15 15 16 17 18 18 19 21 23 24 24 24 25 25 24 24 24 24 24 23 23 23 23 23 22 22 21 21 21 22 22 23 24 24 24 24 24 24 24 24 23 22 22 22 20 18 15 13 13
17 17 16 15 15 15 14 13 13 13 13 13 13 14 15 15 15 16 17 17 17 17 18 18 18 17 17 17 17 16 16 16 16 16 16 16 15 15 16 18 19 20 21 22 23 22 22 23 23 23 23 22 23 23 22 22 22 22 22 21 21 20 20 20 21 21 21 21 22 23 23 23 24 24 24 23 23 23 22 21 21 19 17 13 11
18 17 16 15 14 14 14 14 13 13 14 14 15 15 15 15 15 15 16 17 18 18 18 18 19 18 18 17 17 16 15 15 15 15 15 15 14 14 16 18 19 20 21 21 21 21 21 21 21 21 21 21 21 21 21 21 21 20 20 19 19 18 18 18 18 18 19 19 20 20 21 21 22 22 22 22 23 22 21 20 20 20 19 17 15
17 17 17 16 16 16 16 15 15 15 15 16 16 16 15 15 15 16 17 17 18 19 19 19 19 18 17 17 16 15 15 14 14 13 14 13 13 14 16 18 18 19 20 19 19 19 19 19 19 20 20 20 20 20 20 20 20 19 18 17 17 17 16 16 15 15 16 16 17 17 17 17 18 19 19 19 20 20 20 19 18 18 18 18 17
16 16 16 16 16 17 17 17 16 16 17 17 16 16 15 15 15 16 17 18 19 19 19 19 19 18 17 16 15 15 14 13 13 12 13 13 13 14 15 16 17 18 18 18 17 17 17 17 17 18 18 18 19 19 19 19 19 19 18 16 15 14 13 13 12 12 12 13 13 13 14 14 15 15 16 16 17 18 18 17 16 15 15 16 15
16 16 16 15 15 16 16 17 17 18 18 17 16 16 16 16 16 16 17 18 19 19 19 19 18 17 16 16 15 15 14 13 13 13 13 13 14 14 14 15 15 16 17 16 16 16 16 16 16 16 16 16 17 17 18 18 18 18 18 16 15 13 12 11 10 9 9 9 10 10 11 12 13 13 13 13 14 14 14 15 14 14 13 13 13
15 16 16 15 15 15 15 15 17 17 17 17 16 16 15 15 15 16 17 18 18 19 19 18 18 17 16 16 16 16 15 14 14 14 13 13 13 13 13 14 14 15 15 15 15 15 15 15 15 15 14 15 15 15 15 16 17 17 17 16 16 15 13 12 11 9 8 8 7 7 8 10 11 11 11 11 12 11 11 11 12 12 12 11 10
14 14 14 15 14 14 13 14 15 15 16 16 16 16 15 14 14 14 16 17 17 18 18 18 17 17 17 17 16 16 15 15 15 14 14 13 13 13 13 13 13 13 14 15 15 15 15 15 14 14 13 13 13 14 14 14 15 15 16 16 16 15 15 14 13 11 10 9 8 7 7 8 8 8 9 9 9 9 9 9 10 10 10 9 8
13 13 13 13 13 12 12 12 13 15 16 17 16 15 14 14 13 14 15 16 17 17 17 17 17 17 17 16 15 15 15 14 14 14 14 14 13 13 13 12 12 12 13 13 14 14 15 15 14 13 13 13 13 13 13 13 14 14 14 14 14 15 14 14 14 13 12 11 10 9 8 7 7 7 7 7 6 6 6 7 8 8 9 9 8
13 13 12 12 12 11 10 11 13 15 17 17 16 16 15 14 14 14 15 16 16 17 17 17 17 16 15 15 14 13 13 12 12 13 13 13 13 13 13 12 12 12 12 13 13 13 13 14 14 13 13 12 12 12 13 13 13 14 14 13 13 13 13 13 13 13 13 12 11 10 9 8 7 7 6 6 5 4 4 4 5 6 7 8 8
13 13 13 12 12 11 10 11 13 16 17 17 17 16 16 15 15 15 15 16 16 17 17 16 15 14 13 12 12 11 10 10 10 10 10 10 11 11 11 11 11 11 11 12 12 12 12 13 13 13 13 12 12 12 12 13 13 13 14 13 13 13 13 12 12 12 12 12 12 11 11 9 8 7 6 6 5 4 4 4 4 4 5 6 7
13 13 13 14 13 12 11 13 15 17 18 18 17 17 16 16 15 15 15 15 15 14 14 13 12 11 11 10 9 9 8 7 7 7 7 7 7 8 8 9 9 9 10 10 10 10 11 12 12 12 12 12 12 11 11 12 12 13 13 13 13 13 13 13 12 12 12 12 12 12 11 11 10 9 8 7 7 6 6 6 6 5 5 5 6
15 15 15 15 14 13 13 15 17 19 18 18 18 17 16 15 15 14 14 13 13 12 11 10 10 9 9 8 7 6 6 5 5 4 4 4 4 4 4 5 5 6 7 7 7 8 8 9 10 10 10 10 10 10 10 10 10 10 11 11 11 12 12 12 12 12 12 12 12 12 11 11 11 11 10 10 9 8 8 7 7 7 7 7 7
16 16 16 16 16 15 15 17 19 19 18 18 17 16 15 14 13 13 12 11 11 10 10 9 9 8 8 7 7 6 6 5 5 4 4 3 3 2 2 1 2 2 3 4 4 5 5 6 7 7 8 8 8 8 8 7 7 7 8 9 9 10 10 11 11 12 12 12 12 12 12 12 12 12 11 11 10 10 10 9 9 9 9 9 9
16 16 16 16 16 16 16 17 19 19 18 17 17 16 14 13 12 12 11 10 10 10 9 9 9 9 9 9 8 8 7 7 7 6 5 5 4 4 3 3 2 2 1 1 1 1 2 2 3 4 5 5 6 6 6 5 5 5 5 6 6 7 8 9 10 11 11 11 12 12 12 12 12 12 12 12 11 11 10 10 10 9 9 9 10
15 16 16 16 16 16 16 17 18 18 18 17 17 16 15 14 13 12 12 11 11 11 11 11 11 11 11 11 10 10 10 9 9 9 8 7 7 7 6 5 5 5 5 4 3 3 2 2 1 0 1 2 2 3 3 3 3 3 3 4 4 5 6 7 8 9 9 10 11 11 11 12 12 12 12 12 12 12 12 11 11 10 10 10 10
14 15 16 15 15 14 14 14 15 16 16 17 17 16 15 14 13 13 12 12 12 12 13 13 13 14 13 13 13 13 12 12 11 11 10 10 10 10 9 9 8 8 8 8 7 6 5 5 4 3 2 1 1 1 1 2 2 2 2 2 2 2 3 4 6 7 8 9 9 10 11 11 12 12 12 12 12 12 12 12 12 12 11 11 11
13 14 15 15 14 14 14 14 14 14 15 16 16 15 14 14 14 13 14 14 14 14 14 15 15 15 15 15 15 15 15 14 14 13 13 13 13 13 13 12 11 10 10 10 10 10 8 7 7 6 5 4 3 3 2 2 2 2 2 2 2 2 2 3 4 5 6 7 8 9 10 11 11 12 13 13 13 13 13 13 13 13 13 12 12
Wind_Direction
241 259 269 273 277 282 285 286 285 284 285 289 298 309 317 318 318 317 317 318 318 320 323 325 326 328 331 336 339 338 335 334 336 336 335 334 333 332 330 327 323 317 314 313 307 298 292 289 288 287 279 272 266 263 262 256 250 246 248 264 274 266 252 246 245 243 236 225 219 220 219 216 215 216 217 217 216 213 212 213 216 217 216 213 211
245 258 267 271 274 277 278 277 274 275 281 294 309 316 317 317 316 316 318 319 320 324 328 330 330 331 333 337 338 338 338 339 339 338 337 338 340 341 337 332 329 325 320 319 315 305 297 293 293 291 284 277 273 268 264 260 253 249 248 254 269 271 255 243 245 241 233 225 216 214 214 212 213 215 216 217 216 213 211 212 216 218 216 214 213
251 258 262 265 268 269 267 265 266 275 297 315 320 324 324 322 320 320 324 326 329 332 334 336 339 341 342 341 342 344 346 345 345 345 344 346 350 352 346 338 337 339 336 332 328 318 306 302 300 296 288 281 278 272 265 262 254 251 252 252 260 268 259 248 244 235 225 219 214 216 218 213 212 215 216 217 218 216 212 213 217 218 216 214 214
249 253 255 257 261 259 254 257 267 290 328 332 334 335 329 326 328 333 338 341 341 340 342 347 349 350 352 353 356 356 355 356 358 0 360 357 360 2 357 347 343 343 342 344 346 339 325 317 313 306 295 285 281 277 268 264 260 255 255 253 254 259 256 251 246 236 226 220 219 221 225 222 217 216 217 218 222 219 213 214 218 218 216 214 214
210 213 227 247 258 259 257 259 272 343 3 351 349 340 336 343 352 357 356 353 350 349 350 353 354 3 14 16 14 10 8 8 11 15 12 8 8 8 5 359 353 348 347 351 356 352 341 331 319 309 305 299 293 285 271 266 268 266 261 257 258 259 254 249 244 240 235 229 225 222 223 226 223 218 218 220 223 222 216 218 221 220 217 215 214
188 201 216 244 265 276 273 240 111 79 38 12 3 358 6 14 16 15 9 4 4 7 11 14 19 30 33 26 20 17 15 12 15 18 15 11 9 8 10 12 10 7 3 360 357 350 343 336 327 315 309 306 303 297 284 276 273 270 267 265 263 260 254 247 243 241 235 227 225 226 225 227 225 222 223 223 223 221 218 220 222 222 220 216 214
181 197 223 251 280 298 140 123 108 89 64 47 41 39 38 33 27 24 20 19 25 31 36 41 47 46 35 24 20 18 14 14 18 19 14 10 8 9 14 20 22 23 18 10 2 355 347 340 335 330 319 311 308 304 300 293 280 273 272 272 270 264 256 250 248 246 237 225 225 230 230 231 231 229 229 228 225 221 221 221 220 219 218 215 215
177 204 237 257 272 123 126 119 106 95 81 70 64 57 47 37 32 32 34 38 44 49 53 58 58 46 30 26 28 28 29 32 30 25 18 12 8 8 11 17 22 22 21 17 10 4 359 351 344 337 325 318 316 309 304 299 289 281 276 277 277 273 267 259 251 247 240 230 228 231 232 233 232 230 230 229 226 222 223 224 222 217 212 209 212
186 220 246 234 134 126 122 116 108 98 86 79 75 63 49 43 43 46 50 54 59 63 68 66 55 40 37 42 47 48 49 46 40 34 28 22 15 9 4 5 12 16 17 18 12 8 8 7 2 350 335 328 323 315 307 298 291 287 280 278 275 272 275 271 258 247 240 235 233 233 234 235 233 230 230 231 228 225 224 224 221 217 209 206 210
203 227 221 127 128 128 122 117 110 101 92 86 79 67 57 56 58 62 64 65 66 70 71 62 50 51 60 62 59 55 51 47 41 36 32 28 23 18 10 6 11 15 16 17 15 14 16 18 17 6 350 343 339 328 318 308 303 301 291 284 277 273 282 285 278 264 247 239 238 237 237 241 242 239 237 237 234 228 227 225 218 213 209 207 209
210 181 124 124 132 130 125 121 112 104 98 90 82 74 70 69 68 70 74 74 73 73 72 67 66 70 70 63 56 51 47 44 40 34 31 28 25 24 24 23 26 28 31 34 34 32 30 29 28 22 12 7 2 354 343 332 323 314 301 295 295 292 290 289 282 272 260 253 249 246 246 249 252 249 243 240 236 231 231 228 217 210 210 211 211
152 121 119 132 136 130 126 123 114 108 103 94 87 82 79 79 78 80 82 82 82 82 81 81 78 72 64 58 55 52 48 45 41 36 32 28 26 30 36 41 44 48 52 55 55 53 51 49 47 45 43 39 31 22 14 3 349 332 315 304 299 296 294 291 280 268 264 264 261 259 259 258 259 256 247 243 241 236 233 227 217 213 214 215 215
139 130 132 136 134 129 127 124 117 110 103 94 89 86 83 82 85 87 86 86 87 87 84 81 74 66 62 61 59 57 54 49 45 41 38 36 38 43 50 56 60 63 65 66 65 64 62 61 60 57 54 53 48 40 31 22 14 0 340 321 311 311 312 306 295 279 268 265 263 263 266 266 265 262 256 252 249 242 235 228 221 217 217 217 217
150 141 136 134 132 129 128 125 118 109 102 96 93 90 83 81 84 87 88 88 88 86 80 75 69 66 66 66 64 61 58 53 48 46 46 48 52 58 65 69 71 71 70 68 67 66 64 62 60 58 54 51 48 44 38 31 29 29 28 23 19 18 11 357 344 329 302 281 266 259 262 266 264 262 259 251 245 244 241 236 228 223 218 215 214
144 137 137 137 134 131 128 124 117 107 102 99 96 93 86 82 84 88 89 87 83 80 77 73 71 71 71 70 68 65 61 55 51 50 52 58 62 68 73 76 75 74 71 68 67 66 64 62 59 58 56 54 51 50 48 48 51 57 60 58 55 54 50 42 35 31 24 5 327 285 274 272 267 264 260 247 239 240 241 237 230 221 212 204 202
133 134 141 141 138 134 129 124 115 105 102 101 98 94 90 86 84 86 88 84 79 76 75 74 74 75 75 72 69 67 63 56 52 50 52 57 63 68 74 77 76 75 72 69 67 66 65 64 61 59 59 59 58 59 60 61 64 66 65 62 59 57 54 50 47 47 45 41 33 20 356 334 309 286 271 255 240 238 242 239 226 210 196 185 186
141 140 142 141 141 138 130 122 114 107 105 104 100 95 90 87 84 84 85 82 76 73 75 77 77 76 73 70 67 65 62 55 50 49 50 52 56 62 70 74 74 74 73 71 70 68 67 67 66 64 63 62 61 63 64 65 65 65 66 64 60 58 56 54 52 53 54 56 56 55 57 57 50 39 15 321 254 236 248 242 217 193 174 170 180
147 139 137 139 141 138 129 120 114 108 106 103 98 96 92 88 87 85 81 75 73 75 77 77 75 72 69 67 66 65 62 57 51 50 50 49 51 58 68 74 73 71 72 72 72 71 69 68 67 66 65 64 62 62 63 64 65 66 67 67 64 63 62 59 58 60 61 62 63 64 65 65 60 54 48 36 356 223 248 208 189 171 162 180 187
140 134 138 143 141 135 127 119 113 109 105 100 96 96 94 91 89 85 79 75 75 78 77 72 71 72 70 67 66 64 64 61 56 53 52 49 51 58 68 74 73 71 70 70 70 69 66 65 64 62 61 60 58 58 59 61 63 64 65 66 66 68 68 66 65 66 65 65 66 66 66 65 61 57 54 54 63 82 87 105 125 131 147 191 192
137 137 141 142 138 133 125 118 113 106 100 99 96 94 92 88 84 81 79 80 81 79 75 72 72 74 73 69 67 64 64 64 61 57 55 52 54 61 67 73 75 73 70 69 67 64 61 59 58 56 52 48 48 50 53 56 59 61 60 61 65 68 69 67 66 68 68 69 71 71 70 69 68 65 61 61 66 78 87 89 86 87 89 86 130
138 142 139 133 133 130 123 116 111 102 96 95 94 91 88 85 82 83 84 85 84 81 80 78 77 78 76 73 72 69 67 68 66 62 60 59 60 64 67 72 75 72 68 66 65 62 59 56 55 52 46 43 45 48 51 53 56 58 59 61 65 68 67 66 68 70 72 74 74 74 73 72 71 69 67 65 65 68 75 77 68 67 79 75 71
144 146 139 133 130 126 121 116 110 102 95 93 91 89 89 88 87 88 88 87 85 83 85 85 83 83 81 77 77 76 72 71 70 68 66 64 64 65 65 68 70 68 67 66 64 62 60 58 56 53 48 48 52 55 57 59 60 61 62 63 64 64 63 66 68 68 70 71 71 70 69 68 68 68 68 68 67 65 67 71 70 70 80 88 92
147 145 138 133 128 123 120 114 109 102 97 96 95 93 94 93 92 91 89 88 88 88 90 90 89 89 87 84 82 81 78 74 72 70 68 66 65 64 64 65 67 68 69 69 67 66 64 63 61 58 57 60 63 65 66 66 66 66 67 67 68 68 69 70 69 68 68 67 66 64 62 61 61 62 63 65 66 66 66 69 69 70 72 73 74
146 142 135 131 126 122 118 113 108 105 104 103 99 95 97 96 94 95 93 93 94 94 95 97 96 95 93 90 86 83 79 76 72 69 67 66 64 63 63 63 65 67 70 72 72 71 70 69 68 67 66 68 69 70 71 72 72 73 73 73 73 72 71 69 68 67 67 66 65 63 61 60 60 60 61 63 63 63 65 67 68 69 68 68 70
147 138 131 129 126 122 118 113 111 109 108 105 100 98 99 99 98 99 99 98 101 102 103 104 103 100 97 93 88 84 80 76 71 68 66 64 63 63 63 63 63 65 70 73 74 75 75 75 74 73 72 72 72 72 73 73 74 74 73 72 70 68 67 67 66 65 64 64 64 63 62 63 64 65 66 66 66 66 67 69 71 71 68 70 78
139 133 131 129 127 125 122 119 117 114 110 106 103 101 101 102 103 104 104 105 106 108 108 107 106 103 99 94 89 84 80 75 71 66 63 62 61 60 60 62 62 64 69 73 75 75 75 73 72 71 71 70 70 71 72 72 72 71 69 67 66 65 65 64 64 64 65 64 64 64 64 65 68 70 70 70 69 69 70 72 75 75 76 79 81
134 132 132 130 128 128 127 123 121 119 115 111 108 106 105 108 109 107 107 108 108 108 108 106 103 100 95 92 89 84 80 76 71 67 63 60 58 57 57 59 60 62 67 71 72 72 71 70 70 70 70 70 70 70 70 70 68 68 67 66 65 65 65 65 65 67 68 68 68 68 68 69 71 73 72 69 68 69 71 75 78 80 80 79 77
135 133 131 128 128 130 129 126 124 123 121 118 115 112 112 114 112 109 107 108 107 107 106 103 99 96 93 92 90 86 82 78 73 69 65 62 61 60 59 60 61 63 66 69 72 74 75 74 73 72 72 71 70 69 67 67 66 67 67 67 67 66 66 66 66 67 69 70 70 70 69 69 70 72 72 68 66 67 70 73 75 77 78 77 75
136 134 131 129 130 133 131 129 130 129 126 124 121 118 116 116 114 110 107 106 106 106 105 102 99 99 98 96 92 87 84 79 74 70 68 67 67 67 66 66 68 70 74 78 82 83 82 78 76 74 71 70 70 69 69 69 69 69 69 70 70 69 67 66 66 67 68 69 69 69 68 68 69 72 73 71 67 65 67 69 70 72 75 76 75
136 134 133 132 133 135 134 134 135 133 132 131 127 122 117 114 112 110 108 107 107 107 106 104 103 103 102 98 93 87 83 80 76 74 74 73 73 73 72 72 75 80 85 88 87 84 81 78 76 74 72 71 70 69 69 68 69 69 70 70 71 71 70 69 68 68 68 68 68 68 68 68 69 70 72 73 70 67 66 67 66 67 73 76 76
137 136 135 135 136 136 136 137 137 137 136 135 131 127 122 117 113 110 109 110 110 109 109 107 105 102 99 95 91 87 83 81 79 78 77 76 76 76 77 78 80 83 86 87 83 80 78 77 75 73 73 72 71 70 70 69 69 70 71 72 73 72 71 71 70 69 69 69 68 68 68 68 68 68 69 70 71 68 66 65 62 62 66 72 74
138 136 136 136 136 137 138 139 139 139 137 135 133 131 128 124 119 114 112 112 111 109 107 105 102 99 95 93 92 90 88 86 84 81 79 79 80 82 83 84 83 84 84 84 81 80 78 76 74 72 70 70 70 70 70 70 70 72 73 73 74 74 73 72 70 70 70 70 69 68 68 67 67 67 68 69 69 68 66 64 62 61 62 64 68
136 134 136 138 138 140 140 139 139 138 135 134 134 132 132 130 126 121 117 113 109 107 105 104 102 99 98 98 96 94 91 88 85 82 80 80 82 85 86 85 84 83 83 81 80 80 78 76 74 72 69 68 67 67 68 70 72 74 75 76 77 77 76 74 73 72 72 72 71 69 68 69 70 70 70 71 71 70 69 67 66 65 64 63 65
131 131 135 137 139 141 140 139 140 138 135 134 134 134 134 133 129 126 122 116 110 107 105 105 105 105 104 101 97 93 92 90 87 86 84 83 82 83 85 86 84 81 80 79 79 80 79 78 77 75 72 70 69 67 67 69 73 76 80 81 82 82 81 78 76 76 75 74 73 72 71 72 73 73 73 75 76 74 73 72 72 71 68 68 68
130 131 133 136 138 140 140 141 141 138 135 135 135 134 133 130 128 127 125 121 117 112 109 109 109 106 103 100 96 95 94 92 90 89 86 84 84 84 86 86 84 81 78 78 78 79 80 80 80 79 77 76 74 72 70 70 72 76 80 82 84 85 84 81 78 77 75 73 73 73 72 72 72 71 71 73 75 75 73 73 73 71 71 70 70
133 134 136 138 140 139 139 141 140 137 136 136 135 132 129 126 125 124 122 119 117 114 112 111 109 105 102 99 97 96 95 94 93 92 90 90 90 90 89 86 83 81 79 78 78 79 80 81 81 80 80 79 77 76 75 73 73 74 76 79 81 82 83 82 80 78 75 72 71 71 70 70 71 70 68 67 69 71 72 71 70 70 70 70 68
137 137 138 140 141 139 138 137 137 136 137 136 134 130 127 125 125 123 120 118 116 114 113 112 109 106 104 102 100 100 99 97 96 95 95 96 96 92 89 85 84 83 81 79 79 79 79 80 80 79 79 79 77 77 76 76 76 76 76 77 78 77 79 81 80 79 77 73 70 70 69 67 68 70 69 66 66 68 69 69 66 65 66 67 65
136 137 138 140 140 139 138 137 136 137 138 136 133 132 130 127 125 122 120 118 116 115 114 113 111 111 109 106 105 104 101 99 98 96 96 97 96 92 89 87 86 86 84 82 81 80 80 80 80 79 79 78 77 76 76 75 75 76 76 76 77 77 78 79 78 78 77 73 68 67 64 61 63 68 69 67 67 66 66 67 66 63 62 63 63
133 133 133 134 136 138 138 138 139 140 140 137 135 134 131 127 125 124 123 120 119 118 118 117 116 115 114 111 109 107 104 103 102 98 95 94 91 89 89 89 88 87 86 85 83 82 81 81 80 79 79 78 76 76 76 75 74 74 74 75 76 77 78 80 78 75 72 68 64 60 56 57 62 66 66 67 67 65 61 61 62 61 59 59 60
133 131 129 128 130 133 136 139 142 144 144 141 137 135 133 130 128 129 128 126 124 123 123 122 122 120 118 115 113 111 108 104 99 95 92 90 88 87 88 88 88 87 86 85 83 82 81 80 80 79 78 77 77 76 75 74 74 73 73 73 74 73 74 75 75 73 69 65 61 56 55 61 66 68 67 67 67 64 58 55 54 53 52 53 54
140 135 132 129 129 130 135 141 146 148 148 145 140 138 137 135 134 135 135 134 133 131 129 129 128 125 121 118 114 109 104 98 93 90 87 85 85 85 86 85 86 85 83 82 81 80 79 78 78 79 78 78 77 76 74 73 73 72 71 69 69 68 68 67 67 67 67 65 63 61 61 64 66 68 70 70 65 60 58 53 46 42 42 42 43
152 148 144 140 136 135 139 145 150 152 152 149 145 143 142 141 141 142 143 143 142 139 137 135 133 128 124 120 114 107 100 94 89 86 84 81 81 81 81 82 82 82 81 80 78 77 76 76 75 76 77 77 76 75 74 72 70 68 67 65 64 63 63 63 62 61 60 59 58 57 56 56 56 59 67 73 70 62 55 48 39 34 31 28 27
162 160 159 153 146 142 145 150 155 157 156 153 151 149 147 146 147 147 148 148 147 144 142 140 137 132 127 123 117 111 104 98 92 87 83 81 80 79 78 80 80 78 78 78 76 75 75 75 74 74 74 75 74 74 73 72 70 68 65 63 61 60 59 58 58 57 56 55 53 50 47 45 45 45 47 53 56 54 47 37 30 27 24 18 16
172 170 171 167 160 153 151 155 159 160 158 156 154 153 152 150 149 148 148 148 148 146 144 143 140 137 133 129 124 120 115 109 102 95 88 84 81 79 78 79 78 78 77 76 75 77 77 76 76 76 75 74 74 73 71 70 68 66 64 62 60 58 56 55 54 52 52 51 49 47 44 40 36 31 27 25 23 17 11 9 7 9 12 9 6
182 179 179 178 173 165 158 159 162 162 160 157 157 156 156 155 152 151 151 151 151 152 152 151 149 147 145 142 138 134 130 124 118 111 103 94 86 82 80 79 78 79 80 77 75 76 77 77 77 77 76 76 75 74 73 71 68 66 64 62 60 58 55 53 51 49 48 47 46 44 41 38 34 29 23 16 9 1 354 350 349 349 349 346 347
187 186 185 184 182 175 166 164 166 165 162 161 161 160 159 159 158 158 159 160 162 163 165 166 166 166 165 164 163 159 155 151 144 137 130 121 109 97 89 83 79 81 83 82 80 77 75 76 77 75 75 75 74 73 74 72 68 65 63 60 58 56 53 50 48 46 44 43 42 40 37 35 33 29 25 19 13 5 356 348 342 338 335 331 332
187 187 185 184 185 181 172 169 170 170 168 167 167 167 167 167 169 170 173 174 177 179 182 186 189 190 192 193 195 195 195 195 193 190 184 178 175 171 157 128 101 89 86 87 90 85 78 76 75 74 73 73 71 70 71 68 64 62 59 56 55 53 50 47 45 43 41 39 37 35 34 32 29 26 24 20 15 10 3 355 346 339 332 326 323
181 181 181 182 183 183 177 175 177 179 179 177 178 178 179 181 183 186 189 193 196 200 204 208 211 214 216 218 219 221 225 226 227 228 227 224 223 222 222 224 228 231 228 203 149 121 104 90 80 74 74 72 69 67 67 64 59 55 50 47 49 50 48 45 43 40 39 37 35 31 29 28 26 24 21 17 14 11 6 359 353 346 337 329 323
175 177 179 179 179 180 180 181 184 188 189 189 189 189 191 194 197 200 203 208 213 217 221 226 229 231 233 234 235 237 239 240 242 245 246 245 244 243 241 241 243 244 243 242 237 228 218 208 197 143 84 72 64 60 57 54 49 45 38 32 34 39 41 39 37 34 33 32 29 27 25 23 20 19 17 14 11 9 5 1 357 353 345 337 329
176 177 180 180 180 182 184 187 190 192 193 195 196 199 202 206 209 212 216 221 226 229 232 235 238 240 242 244 245 246 248 249 251 253 254 253 254 253 251 249 249 248 246 245 242 240 239 237 236 236 240 245 265 339 8 13 15 15 13 9 11 17 19 18 18 19 19 18 17 15 14 12 10 9 9 8 6 4 1 358 356 352 348 344 338
184 183 183 185 187 189 190 192 193 195 197 199 203 207 212 218 223 228 232 236 239 240 241 242 244 246 247 249 250 252 254 255 255 254 254 254 255 254 253 252 251 251 250 248 244 241 241 241 241 241 240 238 240 250 265 290 313 325 333 335 334 331 331 339 347 353 357 1 0 358 357 357 356 356 356 356 356 356 355 353 351 349 347 344 340
Height
1522 1524 1525 1526 1526 1527 1527 1526 1525 1525 1525 1524 1524 1523 1523 1523 1522 1522 1521 1520 1519 1517 1516 1515 1514 1512 1511 1510 1509 1507 1506 1505 1504 1503 1502 1501 1500 1499 1498 1497 1495 1494 1493 1492 1491 1490 1490 1489 1488 1488 1488 1487 1487 1487 1487 1487 1486 1486 1487 1487 1486 1487 1487 1488 1488 1490 1491 1493 1495 1497 1498 1499 1500 1502 1504 1505 1508 1510 1513 1516 1517 1519 1521 1524 1526
1522 1523 1524 1524 1524 1524 1525 1524 1524 1524 1523 1523 1523 1522 1522 1522 1521 1521 1520 1518 1517 1516 1515 1513 1512 1511 1510 1509 1507 1506 1505 1504 1503 1502 1501 1500 1499 1498 1497 1496 1494 1493 1492 1491 1490 1489 1488 1488 1487 1487 1486 1486 1485 1485 1485 1484 1484 1484 1485 1485 1485 1485 1485 1486 1487 1487 1489 1491 1493 1495 1496 1497 1498 1500 1502 1503 1505 1507 1510 1512 1514 1516 1518 1521 1523
1521 1522 1522 1522 1522 1523 1523 1523 1522 1522 1522 1522 1522 1522 1522 1521 1521 1520 1518 1517 1516 1514 1513 1512 1510 1509 1508 1507 1507 1506 1505 1503 1502 1501 1500 1499 1498 1497 1496 1495 1494 1492 1491 1490 1489 1488 1487 1486 1486 1486 1485 1484 1484 1483 1483 1483 1482 1483 1483 1483 1483 1483 1483 1484 1484 1485 1486 1489 1491 1493 1494 1495 1497 1498 1500 1502 1503 1505 1508 1510 1511 1513 1516 1518 1521
1519 1520 1521 1521 1521 1521 1521 1521 1521 1521 1521 1521 1521 1521 1521 1521 1520 1519 1517 1516 1514 1513 1512 1511 1509 1508 1508 1507 1506 1505 1504 1502 1501 1500 1499 1498 1497 1496 1495 1494 1493 1492 1491 1489 1488 1487 1486 1486 1485 1484 1484 1483 1482 1482 1481 1481 1481 1481 1481 1481 1481 1481 1482 1482 1483 1483 1485 1487 1489 1491 1493 1494 1495 1496 1497 1499 1501 1503 1506 1507 1508 1510 1513 1516 1518
1518 1518 1519 1520 1520 1520 1520 1520 1521 1521 1521 1521 1521 1521 1521 1520 1519 1518 1516 1515 1513 1512 1511 1510 1509 1508 1507 1506 1505 1504 1503 1502 1501 1500 1499 1498 1497 1496 1495 1494 1492 1491 1490 1489 1488 1487 1486 1485 1484 1484 1483 1482 1482 1481 1480 1480 1480 1480 1480 1480 1480 1480 1480 1480 1481 1482 1484 1486 1487 1489 1491 1492 1493 1494 1495 1497 1498 1500 1503 1504 1505 1508 1510 1513 1515
1516 1517 1518 1519 1519 1519 1519 1520 1520 1520 1521 1521 1521 1521 1520 1520 1519 1517 1515 1514 1512 1511 1510 1509 1508 1507 1507 1506 1505 1504 1503 1502 1501 1500 1499 1498 1497 1496 1495 1494 1492 1491 1490 1489 1488 1486 1485 1484 1484 1483 1483 1482 1481 1481 1480 1479 1479 1479 1479 1479 1479 1478 1478 1478 1479 1480 1482 1484 1485 1487 1488 1490 1491 1491 1492 1494 1496 1497 1499 1501 1503 1505 1507 1509 1511
1516 1516 1517 1518 1518 1519 1519 1519 1520 1520 1521 1521 1521 1521 1520 1519 1518 1516 1515 1513 1512 1510 1509 1508 1508 1507 1507 1506 1505 1504 1503 1502 1501 1500 1499 1498 1497 1496 1495 1493 1492 1491 1489 1488 1487 1486 1485 1484 1483 1483 1482 1481 1481 1480 1479 1479 1478 1478 1478 1477 1477 1477 1477 1477 1478 1479 1480 1482 1483 1484 1486 1487 1488 1489 1490 1492 1494 1495 1496 1498 1500 1502 1504 1506 1508
1515 1515 1516 1517 1518 1518 1519 1520 1520 1521 1521 1521 1521 1521 1520 1519 1517 1516 1514 1513 1511 1510 1509 1509 1509 1508 1508 1506 1505 1505 1504 1503 1502 1500 1499 1498 1497 1496 1494 1493 1492 1490 1489 1488 1487 1486 1485 1484 1483 1483 1482 1481 1480 1479 1478 1478 1477 1477 1476 1476 1476 1476 1476 1476 1477 1477 1479 1480 1481 1482 1484 1485 1485 1486 1488 1489 1490 1491 1493 1495 1497 1499 1501 1504 1506
1515 1515 1516 1516 1517 1518 1519 1520 1521 1521 1522 1522 1522 1521 1520 1519 1517 1515 1514 1513 1512 1511 1510 1510 1510 1509 1508 1507 1506 1505 1504 1503 1502 1501 1500 1499 1497 1496 1494 1493 1492 1490 1489 1488 1487 1486 1485 1484 1483 1482 1481 1480 1480 1479 1478 1477 1476 1475 1475 1475 1475 1475 1475 1475 1476 1476 1477 1478 1480 1481 1482 1483 1483 1484 1486 1486 1487 1488 1490 1492 1494 1497 1499 1502 1504
1514 1515 1515 1516 1517 1518 1520 1521 1522 1522 1522 1522 1522 1521 1520 1518 1517 1516 1515 1514 1513 1512 1512 1511 1511 1510 1509 1508 1507 1506 1504 1503 1502 1502 1501 1499 1498 1496 1495 1493 1492 1491 1489 1488 1487 1486 1485 1484 1483 1482 1481 1480 1479 1479 1478 1477 1476 1475 1475 1474 1474 1474 1474 1474 1475 1475 1476 1477 1478 1479 1480 1481 1481 1482 1483 1484 1485 1487 1488 1490 1492 1494 1497 1499 1501
1514 1514 1515 1516 1517 1519 1520 1521 1522 1523 1523 1522 1521 1520 1520 1519 1517 1517 1516 1515 1514 1513 1513 1512 1511 1511 1510 1509 1508 1507 1506 1505 1504 1503 1502 1500 1499 1497 1495 1494 1492 1491 1490 1488 1487 1486 1485 1484 1483 1482 1481 1480 1480 1479 1478 1477 1476 1475 1475 1474 1474 1474 1474 1474 1474 1475 1475 1476 1477 1478 1478 1479 1480 1481 1482 1483 1483 1485 1487 1488 1489 1491 1493 1495 1497
1514 1514 1515 1516 1518 1519 1521 1522 1523 1523 1522 1522 1521 1520 1520 1519 1518 1517 1516 1515 1515 1514 1514 1513 1512 1512 1511 1510 1509 1508 1507 1506 1505 1504 1503 1501 1500 1498 1497 1495 1493 1492 1491 1490 1488 1487 1486 1485 1483 1482 1481 1480 1480 1479 1478 1477 1477 1476 1475 1474 1474 1474 1474 1474 1474 1474 1475 1475 1476 1477 1478 1478 1479 1480 1480 1481 1482 1483 1485 1486 1488 1489 1491 1493 1495
1514 1514 1515 1516 1518 1520 1521 1522 1523 1523 1522 1522 1521 1521 1520 1520 1519 1518 1517 1516 1516 1515 1515 1514 1513 1513 1512 1511 1511 1510 1509 1508 1507 1506 1504 1503 1502 1500 1498 1497 1495 1494 1493 1491 1490 1489 1487 1486 1484 1483 1482 1481 1480 1479 1479 1478 1477 1476 1476 1475 1475 1474 1474 1474 1474 1473 1474 1475 1475 1476 1477 1478 1478 1478 1479 1480 1481 1482 1483 1484 1486 1488 1490 1491 1493
1513 1514 1515 1517 1518 1520 1522 1523 1523 1522 1522 1521 1521 1521 1521 1520 1519 1518 1518 1517 1517 1516 1516 1515 1515 1514 1514 1513 1512 1511 1510 1510 1509 1508 1506 1505 1504 1502 1501 1499 1498 1496 1495 1493 1492 1491 1489 1488 1486 1485 1484 1483 1481 1480 1480 1479 1478 1478 1477 1476 1476 1475 1475 1475 1474 1474 1474 1474 1475 1476 1476 1477 1477 1478 1478 1479 1480 1481 1482 1483 1484 1486 1488 1490 1493
1513 1514 1515 1517 1518 1520 1522 1522 1522 1522 1522 1521 1521 1521 1521 1520 1520 1520 1519 1518 1518 1517 1517 1517 1516 1516 1516 1515 1514 1513 1512 1512 1511 1510 1509 1508 1506 1505 1503 1502 1500 1498 1497 1496 1494 1493 1492 1490 1489 1488 1486 1485 1484 1483 1482 1482 1481 1480 1478 1477 1477 1476 1475 1475 1475 1475 1474 1474 1475 1475 1476 1476 1476 1477 1477 1478 1479 1480 1481 1482 1483 1483 1485 1488 1492
1513 1514 1515 1516 1518 1520 1521 1522 1522 1522 1522 1522 1521 1521 1521 1521 1520 1520 1520 1520 1519 1519 1519 1518 1518 1518 1517 1517 1516 1515 1515 1515 1514 1513 1512 1510 1509 1507 1506 1504 1502 1501 1499 1498 1497 1496 1495 1494 1493 1492 1490 1488 1488 1487 1486 1485 1483 1481 1480 1480 1479 1478 1477 1477 1478 1477 1476 1475 1475 1475 1476 1476 1476 1476 1476 1477 1478 1480 1480 1482 1483 1482 1483 1487 1491
1512 1513 1515 1516 1518 1520 1521 1522 1522 1522 1522 1522 1522 1521 1521 1521 1521 1521 1521 1521 1521 1520 1520 1520 1520 1519 1519 1519 1518 1517 1517 1516 1516 1515 1514 1513 1511 1510 1508 1507 1505 1503 1502 1501 1500 1499 1498 1497 1496 1495 1494 1493 1492 1491 1489 1487 1486 1484 1483 1483 1482 1481 1481 1481 1481 1480 1479 1478 1477 1477 1477 1477 1477 1476 1476 1476 1478 1479 1480 1481 1483 1483 1484 1488 1492
1512 1514 1515 1516 1518 1519 1521 1521 1521 1522 1522 1522 1522 1522 1522 1522 1522 1522 1522 1522 1521 1521 1522 1522 1521 1521 1520 1520 1520 1519 1519 1518 1518 1517 1516 1515 1513 1512 1511 1510 1508 1507 1506 1505 1504 1503 1502 1501 1500 1499 1498 1498 1497 1495 1493 1491 1489 1488 1487 1486 1485 1484 1485 1486 1485 1483 1482 1480 1479 1479 1479 1478 1478 1477 1477 1477 1478 1479 1480 1481 1483 1485 1487 1490 1493
1512 1514 1515 1516 1518 1519 1520 1521 1521 1521 1522 1522 1522 1522 1522 1523 1523 1523 1523 1523 1523 1523 1523 1523 1523 1522 1522 1522 1522 1521 1520 1520 1520 1519 1518 1517 1516 1514 1513 1512 1511 1510 1509 1508 1507 1506 1506 1504 1503 1502 1501 1501 1500 1498 1496 1494 1492 1491 1491 1490 1488 1488 1490 1490 1488 1487 1485 1483 1482 1482 1481 1480 1480 1479 1479 1479 1480 1481 1483 1484 1485 1487 1489 1492 1494
1513 1515 1516 1517 1518 1519 1520 1521 1521 1521 1522 1522 1522 1523 1523 1523 1524 1524 1524 1524 1524 1524 1524 1524 1524 1524 1524 1524 1523 1523 1522 1522 1522 1521 1521 1519 1518 1517 1516 1514 1513 1513 1512 1511 1509 1509 1508 1507 1506 1505 1505 1503 1502 1500 1499 1497 1495 1494 1494 1492 1492 1493 1494 1493 1491 1490 1488 1487 1486 1485 1484 1484 1484 1483 1482 1482 1483 1484 1486 1487 1488 1489 1492 1494 1496
1514 1515 1516 1517 1518 1518 1520 1520 1521 1522 1522 1523 1523 1523 1524 1525 1525 1525 1525 1525 1526 1526 1525 1525 1525 1525 1525 1525 1525 1524 1524 1524 1523 1523 1522 1521 1520 1519 1518 1516 1515 1514 1513 1512 1511 1510 1510 1509 1508 1508 1507 1506 1504 1502 1501 1500 1498 1497 1496 1496 1496 1497 1497 1495 1494 1493 1491 1490 1490 1489 1488 1488 1487 1487 1487 1486 1487 1488 1488 1488 1490 1492 1494 1496 1498
1514 1515 1516 1517 1518 1518 1520 1521 1521 1522 1523 1524 1524 1524 1525 1526 1526 1526 1527 1527 1527 1527 1527 1527 1527 1527 1527 1527 1526 1526 1526 1526 1525 1525 1524 1523 1522 1521 1519 1518 1517 1516 1515 1514 1513 1512 1512 1512 1511 1511 1510 1508 1506 1505 1503 1502 1501 1500 1500 1500 1500 1500 1499 1497 1496 1495 1494 1493 1492 1491 1491 1491 1490 1490 1490 1490 1491 1491 1491 1492 1493 1495 1496 1498 1500
1514 1515 1516 1517 1518 1519 1520 1521 1522 1523 1524 1525 1526 1526 1526 1527 1527 1528 1528 1528 1528 1528 1528 1528 1528 1528 1528 1528 1528 1528 1528 1528 1528 1527 1526 1525 1524 1523 1521 1520 1520 1519 1517 1516 1515 1515 1515 1514 1514 1513 1512 1510 1509 1507 1506 1505 1504 1503 1504 1504 1503 1502 1501 1500 1498 1497 1496 1495 1494 1493 1493 1493 1493 1493 1493 1493 1494 1495 1495 1496 1497 1498 1499 1500 1501
1514 1515 1517 1518 1519 1520 1521 1522 1523 1524 1525 1526 1527 1527 1527 1528 1528 1529 1529 1529 1529 1529 1530 1530 1530 1530 1530 1530 1530 1530 1530 1530 1530 1529 1528 1527 1526 1525 1524 1523 1522 1521 1519 1518 1518 1518 1518 1518 1517 1516 1515 1513 1512 1510 1509 1508 1508 1508 1507 1507 1505 1504 1503 1502 1501 1500 1499 1498 1497 1497 1497 1497 1497 1497 1497 1497 1497 1498 1498 1499 1499 1500 1501 1502 1503
1515 1516 1517 1519 1520 1521 1522 1523 1524 1525 1527 1527 1528 1528 1529 1529 1530 1530 1531 1531 1531 1531 1531 1532 1532 1532 1532 1532 1532 1532 1532 1532 1532 1531 1531 1530 1529 1528 1527 1526 1525 1524 1522 1521 1521 1521 1521 1521 1520 1519 1518 1516 1515 1513 1512 1512 1511 1511 1510 1509 1508 1507 1506 1505 1505 1503 1502 1502 1502 1502 1502 1502 1502 1502 1502 1502 1501 1501 1501 1501 1501 1502 1503 1504 1504
1515 1517 1518 1520 1521 1522 1522 1524 1525 1527 1528 1528 1529 1529 1530 1530 1531 1531 1532 1533 1533 1533 1533 1534 1534 1534 1534 1534 1534 1534 1534 1534 1534 1533 1533 1532 1531 1531 1530 1529 1528 1527 1525 1525 1525 1525 1524 1524 1522 1521 1520 1519 1517 1516 1515 1515 1515 1514 1513 1511 1510 1509 1509 1508 1507 1507 1506 1506 1506 1506 1507 1507 1507 1507 1507 1506 1505 1505 1505 1505 1505 1505 1505 1506 1506
1516 1518 1519 1520 1521 1523 1524 1525 1526 1527 1528 1529 1530 1531 1531 1532 1532 1533 1534 1535 1535 1535 1536 1536 1536 1536 1536 1536 1536 1536 1536 1536 1536 1535 1535 1534 1534 1533 1532 1531 1531 1530 1529 1528 1528 1527 1526 1526 1524 1523 1522 1521 1520 1519 1518 1518 1517 1516 1515 1514 1514 1513 1513 1512 1511 1511 1510 1511 1511 1511 1511 1511 1511 1511 1510 1510 1509 1509 1509 1509 1509 1508 1509 1509 1508
1518 1519 1520 1521 1522 1524 1525 1526 1527 1528 1529 1530 1531 1532 1533 1534 1534 1535 1536 1536 1537 1537 1537 1537 1538 1538 1538 1538 1538 1538 1538 1538 1537 1537 1537 1536 1536 1535 1535 1534 1533 1532 1531 1531 1530 1529 1529 1528 1527 1526 1525 1524 1522 1522 1521 1521 1520 1519 1519 1518 1517 1517 1516 1516 1515 1514 1514 1514 1514 1514 1514 1514 1514 1514 1513 1513 1513 1513 1513 1513 1513 1512 1512 1512 1511
1519 1520 1521 1522 1524 1525 1526 1528 1529 1530 1530 1531 1532 1533 1535 1536 1536 1536 1537 1538 1539 1539 1539 1539 1540 1540 1540 1540 1540 1540 1540 1539 1539 1539 1539 1539 1538 1538 1537 1536 1535 1535 1534 1534 1533 1532 1531 1530 1529 1528 1527 1526 1525 1524 1524 1523 1523 1523 1522 1522 1521 1521 1520 1519 1518 1518 1518 1518 1517 1517 1517 1517 1517 1517 1517 1516 1516 1517 1517 1517 1517 1516 1516 1515 1515
1520 1521 1522 1523 1525 1526 1527 1529 1530 1531 1532 1533 1534 1535 1536 1537 1538 1538 1539 1540 1540 1541 1541 1541 1542 1542 1542 1542 1542 1542 1541 1541 1541 1542 1542 1541 1541 1540 1539 1538 1538 1537 1537 1537 1536 1534 1533 1532 1531 1530 1529 1528 1527 1527 1527 1526 1526 1526 1525 1525 1524 1524 1523 1523 1522 1522 1522 1521 1521 1520 1520 1520 1520 1520 1520 1519 1520 1520 1520 1520 1520 1520 1519 1519 1519
1521 1522 1523 1525 1526 1527 1529 1530 1531 1533 1534 1535 1536 1536 1537 1538 1540 1540 1541 1542 1542 1543 1543 1543 1544 1544 1544 1543 1543 1543 1543 1543 1544 1544 1544 1543 1542 1542 1541 1541 1540 1540 1539 1539 1537 1535 1534 1534 1533 1532 1532 1531 1530 1530 1529 1529 1529 1528 1528 1528 1528 1527 1527 1526 1526 1526 1525 1525 1524 1524 1523 1523 1523 1523 1522 1522 1522 1523 1523 1523 1522 1522 1522 1522 1522
1522 1523 1525 1526 1527 1529 1531 1532 1533 1535 1536 1537 1538 1538 1539 1540 1541 1542 1543 1544 1544 1544 1545 1545 1545 1545 1545 1545 1545 1545 1545 1546 1546 1546 1546 1545 1544 1544 1543 1543 1542 1542 1542 1540 1538 1537 1536 1536 1535 1535 1534 1534 1533 1533 1532 1532 1532 1531 1531 1531 1530 1530 1530 1530 1530 1529 1529 1528 1527 1527 1526 1526 1526 1526 1525 1525 1525 1525 1525 1525 1525 1525 1525 1525 1525
1523 1524 1526 1527 1529 1531 1532 1534 1535 1536 1537 1538 1539 1540 1541 1541 1542 1543 1544 1545 1546 1546 1546 1547 1547 1547 1547 1548 1548 1547 1548 1548 1548 1548 1547 1547 1547 1546 1546 1545 1544 1544 1543 1541 1540 1539 1538 1538 1537 1537 1537 1536 1536 1536 1535 1534 1534 1534 1534 1533 1533 1533 1533 1533 1533 1532 1531 1531 1530 1530 1529 1529 1529 1529 1529 1528 1528 1527 1527 1527 1527 1527 1527 1528 1528
1525 1526 1528 1529 1531 1532 1534 1535 1537 1538 1539 1540 1541 1542 1543 1543 1544 1544 1545 1546 1547 1547 1548 1548 1549 1549 1549 1550 1549 1549 1549 1549 1549 1549 1549 1549 1549 1548 1548 1547 1546 1546 1545 1543 1542 1541 1541 1541 1540 1540 1540 1539 1539 1538 1538 1537 1537 1537 1536 1536 1536 1536 1536 1536 1536 1535 1534 1534 1533 1533 1533 1532 1532 1531 1531 1531 1531 1530 1530 1530 1530 1530 1530 1530 1530
1526 1528 1530 1531 1532 1534 1535 1537 1538 1539 1540 1541 1542 1543 1544 1544 1545 1546 1546 1547 1548 1548 1549 1550 1550 1551 1551 1551 1551 1551 1551 1551 1551 1551 1551 1550 1550 1550 1550 1549 1548 1547 1546 1545 1544 1544 1544 1543 1543 1542 1542 1542 1541 1541 1540 1540 1539 1539 1539 1539 1539 1539 1539 1538 1538 1537 1537 1537 1536 1536 1535 1535 1534 1534 1534 1534 1533 1533 1533 1532 1532 1532 1532 1532 1533
1528 1529 1531 1532 1534 1535 1536 1538 1539 1540 1541 1542 1543 1544 1545 1546 1547 1547 1548 1549 1549 1549 1550 1551 1552 1552 1553 1553 1553 1553 1553 1553 1553 1552 1552 1552 1552 1552 1552 1550 1549 1549 1548 1547 1547 1547 1546 1546 1545 1545 1544 1544 1544 1543 1543 1542 1542 1541 1541 1541 1541 1541 1541 1540 1540 1540 1539 1539 1538 1538 1538 1537 1537 1536 1537 1536 1535 1535 1535 1535 1535 1534 1534 1534 1534
1529 1530 1532 1533 1535 1536 1537 1539 1540 1541 1542 1543 1545 1546 1546 1547 1548 1549 1549 1550 1550 1551 1552 1552 1553 1554 1554 1554 1554 1554 1554 1554 1554 1554 1554 1554 1554 1554 1553 1552 1551 1550 1550 1549 1549 1549 1548 1548 1547 1547 1547 1546 1546 1545 1545 1544 1544 1543 1543 1543 1543 1543 1542 1542 1542 1542 1541 1541 1540 1540 1540 1539 1539 1539 1539 1538 1538 1538 1537 1537 1537 1537 1536 1536 1536
1531 1532 1533 1535 1536 1537 1538 1540 1541 1543 1544 1545 1546 1547 1548 1548 1549 1550 1551 1551 1552 1552 1553 1554 1555 1555 1556 1556 1556 1556 1556 1556 1556 1556 1555 1555 1555 1555 1554 1553 1553 1552 1551 1551 1551 1550 1550 1550 1549 1549 1548 1548 1547 1547 1546 1546 1545 1545 1545 1545 1544 1544 1544 1544 1544 1543 1543 1542 1542 1542 1541 1541 1541 1540 1540 1540 1540 1539 1539 1539 1539 1539 1539 1538 1538
1532 1534 1535 1536 1537 1538 1540 1541 1542 1544 1545 1546 1547 1548 1549 1550 1550 1551 1552 1553 1553 1554 1554 1555 1556 1556 1557 1557 1557 1557 1557 1558 1557 1557 1557 1556 1556 1555 1555 1555 1554 1554 1553 1553 1552 1552 1551 1551 1551 1550 1550 1549 1549 1549 1548 1547 1547 1546 1546 1546 1546 1545 1545 1545 1545 1544 1544 1543 1543 1543 1543 1542 1542 1542 1542 1541 1541 1541 1541 1540 1540 1540 1540 1540 1540
1533 1535 1536 1537 1539 1540 1541 1542 1544 1545 1546 1547 1548 1549 1550 1551 1552 1552 1553 1554 1554 1555 1556 1557 1557 1558 1558 1558 1558 1558 1559 1559 1559 1558 1558 1557 1557 1556 1556 1556 1555 1555 1554 1554 1553 1553 1552 1552 1552 1551 1551 1551 1550 1550 1549 1549 1548 1548 1548 1547 1547 1546 1546 1546 1545 1545 1545 1544 1544 1544 1544 1543 1543 1543 1543 1542 1542 1542 1542 1541 1541 1541 1541 1541 1541
1535 1536 1537 1539 1540 1541 1542 1544 1545 1546 1547 1548 1549 1550 1551 1552 1553 1554 1554 1555 1556 1556 1557 1558 1558 1559 1559 1559 1559 1559 1560 1560 1559 1559 1559 1558 1558 1557 1557 1556 1556 1556 1555 1555 1554 1554 1553 1553 1552 1552 1552 1551 1551 1551 1550 1550 1549 1549 1549 1548 1548 1547 1547 1546 1546 1546 1545 1545 1545 1544 1544 1544 1544 1543 1543 1543 1543 1543 1542 1542 1542 1542 1542 1541 1541
1536 1537 1539 1540 1541 1542 1543 1545 1546 1547 1548 1549 1550 1551 1552 1553 1554 1554 1555 1556 1557 1557 1558 1559 1559 1560 1560 1560 1560 1560 1560 1560 1560 1560 1559 1559 1559 1558 1557 1557 1557 1556 1556 1555 1555 1554 1554 1553 1553 1553 1552 1552 1552 1551 1551 1551 1550 1550 1549 1549 1549 1548 1548 1547 1547 1546 1546 1546 1545 1545 1545 1544 1544 1544 1543 1543 1543 1543 1543 1542 1542 1542 1542 1541 1541
1537 1538 1540 1541 1542 1543 1544 1545 1546 1548 1549 1550 1551 1552 1553 1554 1555 1555 1556 1557 1557 1558 1559 1560 1560 1560 1561 1561 1561 1561 1561 1561 1561 1561 1560 1560 1560 1559 1558 1558 1557 1557 1556 1556 1555 1555 1555 1554 1554 1553 1553 1552 1552 1552 1551 1551 1551 1550 1550 1550 1549 1549 1548 1548 1548 1547 1547 1546 1546 1545 1545 1545 1544 1544 1544 1543 1543 1543 1543 1542 1542 1542 1542 1541 1541
1537 1539 1540 1541 1543 1544 1545 1546 1547 1548 1549 1550 1552 1553 1554 1555 1555 1556 1557 1558 1558 1559 1560 1560 1561 1561 1562 1562 1562 1562 1562 1562 1562 1562 1561 1561 1560 1560 1559 1559 1558 1558 1557 1556 1556 1556 1555 1555 1554 1554 1553 1553 1552 1552 1552 1552 1551 1551 1551 1550 1550 1550 1549 1549 1548 1548 1547 1547 1546 1546 1545 1545 1544 1544 1544 1543 1543 1543 1543 1542 1542 1542 1541 1541 1541
1537 1539 1540 1542 1543 1544 1545 1546 1548 1549 1550 1551 1552 1553 1554 1555 1556 1557 1558 1559 1559 1560 1561 1561 1561 1562 1562 1562 1562 1562 1562 1562 1562 1562 1562 1561 1561 1561 1560 1560 1559 1558 1558 1557 1557 1556 1556 1555 1555 1554 1554 1553 1553 1553 1552 1552 1552 1552 1551 1551 1551 1550 1550 1549 1549 1548 1548 1547 1546 1546 1545 1545 1544 1544 1543 1543 1543 1542 1542 1542 1542 1541 1541 1541 1540
1537 1539 1540 1542 1543 1544 1545 1547 1548 1549 1550 1551 1553 1554 1555 1556 1557 1557 1558 1559 1560 1560 1561 1561 1562 1562 1562 1563 1563 1563 1563 1562 1562 1562 1562 1562 1561 1561 1561 1560 1560 1559 1558 1558 1557 1557 1556 1556 1555 1555 1554 1554 1553 1553 1553 1553 1552 1552 1552 1551 1551 1551 1550 1550 1549 1548 1548 1547 1547 1546 1546 1545 1544 1544 1543 1543 1542 1542 1541 1541 1541 1540 1540 1540 1540
1537 1538 1540 1542 1543 1544 1545 1547 1548 1549 1551 1552 1553 1554 1555 1556 1557 1558 1558 1559 1560 1560 1561 1561 1562 1562 1562 1562 1562 1562 1562 1562 1562 1562 1562 1561 1561 1561 1560 1560 1560 1559 1559 1558 1558 1557 1557 1556 1555 1555 1554 1554 1553 1553 1553 1553 1552 1552 1552 1551 1551 1551 1550 1550 1549 1549 1548 1547 1547 1546 1546 1545 1544 1544 1543 1543 1542 1541 1541 1540 1540 1539 1539 1539 1539
1537 1538 1540 1541 1543 1544 1545 1546 1548 1549 1551 1552 1553 1554 1555 1556 1557 1557 1558 1559 1559 1560 1560 1561 1561 1561 1562 1562 1562 1562 1562 1562 1561 1561 1561 1561 1560 1560 1560 1559 1559 1559 1558 1558 1558 1557 1557 1556 1555 1555 1554 1554 1553 1553 1553 1552 1552 1552 1551 1551 1551 1550 1550 1550 1549 1548 1548 1547 1547 1546 1546 1545 1544 1544 1543 1542 1542 1541 1540 1540 1539 1538 1538 1537 1537
1536 1538 1539 1541 1542 1544 1545 1546 1548 1549 1550 1551 1552 1553 1554 1555 1556 1557 1557 1558 1559 1559 1560 1560 1560 1560 1560 1560 1561 1561 1560 1560 1560 1560 1560 1560 1559 1559 1559 1558 1558 1558 1557 1557 1557 1556 1556 1556 1555 1555 1554 1553 1553 1552 1552 1552 1551 1551 1551 1551 1550 1550 1550 1549 1549 1548 1548 1547 1546 1546 1545 1545 1544 1543 1543 1542 1541 1540 1540 1539 1538 1538 1537 1536 1536
1536 1538 1539 1541 1542 1543 1545 1546 1547 1548 1550 1551 1552 1553 1554 1554 1555 1556 1556 1557 1557 1558 1558 1558 1559 1559 1559 1559 1559 1559 1559 1559 1559 1559 1558 1558 1558 1558 1557 1557 1557 1556 1556 1556 1555 1555 1555 1554 1554 1553 1553 1553 1552 1552 1551 1551 1551 1550 1550 1550 1549 1549 1549 1548 1548 1548 1547 1546 1546 1545 1545 1544 1543 1543 1542 1541 1541 1540 1539 1538 1537 1537 1536 1535 1534
1536 1538 1539 1540 1542 1543 1544 1545 1547 1548 1549 1550 1551 1552 1553 1553 1554 1555 1555 1556 1556 1556 1556 1557 1557 1557 1557 1557 1557 1557 1557 1557 1557 1556 1556 1556 1556 1556 1555 1555 1555 1555 1554 1554 1554 1553 1553 1553 1552 1552 1551 1551 1551 1550 1550 1550 1549 1549 1549 1549 1548 1548 1548 1547 1547 1546 1546 1545 1545 1544 1544 1543 1543 1542 1541 1540 1540 1539 1538 1537 1537 1536 1535 1534 1533